sat.trackr.live / text

‹ back to catalog

STARLINK-5238

NORAD 54188 · 2022-141AH

PAYLOAD ACTIVE UNKNOWN

§ Identity

Operator
Country
US
Launch date
2022-10-28
Launch site
AFWTR
Launch vehicle
Mass (kg)
RCS (m²)

Purposes: comms

External: N2YO · Heavens-Above · Gunter

§ Orbital elements

Epoch: 2026-09-20T06:39:30.928320Z

Period
93.85 min
Inclination
53.1613°
Eccentricity
0.0001238
Mean motion
15.34393161 rev/d
Perigee alt
461.9 km
Apogee alt
463.6 km
Semi-major
6,840.9 km
B*
1.1325e-5
RAAN
188.7274°
Arg perigee
80.6915°
Mean anomaly
279.4227°
Rev number
21,553

§ Raw data

STARLINK-52381 54188U 22141AH  26263.27744130  .00000006  00000+0  11325-4 0  99942 54188  53.1613 188.7274 0001238  80.6915 279.4227 15.34393161215532

JSON: /api/v1/satellites/54188 · /tle

For live sub-satellite position, see the globe view (requires WebGL).

§ Visibility from observer

Set your observer location to see the next 7 days of passes ≥ 10°. The values pass through the URL so the page stays shareable.

No JS? Fill the form by hand. The geolocation button needs JavaScript.